Satellite: NOAA-11 Catalog number: 19531 Epoch time: 11229.86396637 Element set: 0605 Inclination: 098.7520 deg RA of node: 316.1576 deg Eccentricity: 0.0011567 Arg of perigee: 016.2791 deg Mean anomaly: 343.8751 deg Mean motion: 14.14921998 rev/day Decay rate: 2.43e-06 rev/day^2 Epoch rev: 18147 Checksum: 320
Satellite: NOAA-12 Catalog number: 21263 Epoch time: 11229.98489065 Element set: 0115 Inclination: 098.7511 deg RA of node: 247.7196 deg Eccentricity: 0.0012911 Arg of perigee: 011.7088 deg Mean anomaly: 348.4389 deg Mean motion: 14.25731701 rev/day Decay rate: 6.9e-07 rev/day^2 Epoch rev: 05321 Checksum: 301
Satellite: MET-3/5 Catalog number: 21655 Epoch time: 11229.89630386 Element set: 0187 Inclination: 082.5601 deg RA of node: 007.1649 deg Eccentricity: 0.0013661 Arg of perigee: 009.0534 deg Mean anomaly: 351.0872 deg Mean motion: 13.17029189 rev/day Decay rate: 5.1e-07 rev/day^2 Epoch rev: 96184 Checksum: 300
Satellite: MET-2/21 Catalog number: 22782 Epoch time: 11230.73461908 Element set: 179 Inclination: 082.5459 deg RA of node: 273.2572 deg Eccentricity: 0.0020983 Arg of perigee: 284.9043 deg Mean anomaly: 074.9787 deg Mean motion: 13.83660268 rev/day Decay rate: 4.0e-07 rev/day^2 Epoch rev: 90720 Checksum: 319
Satellite: OKEAN-4 Catalog number: 23317 Epoch time: 11230.77432120 Element set: 641 Inclination: 082.5444 deg RA of node: 314.6975 deg Eccentricity: 0.0020115 Arg of perigee: 273.3413 deg Mean anomaly: 086.5500 deg Mean motion: 14.83126637 rev/day Decay rate: 3.41e-06 rev/day^2 Epoch rev: 90982 Checksum: 269
Satellite: NOAA-14 Catalog number: 23455 Epoch time: 11229.95907938 Element set: 0596 Inclination: 098.8495 deg RA of node: 311.9744 deg Eccentricity: 0.0010215 Arg of perigee: 102.3405 deg Mean anomaly: 257.8908 deg Mean motion: 14.13828340 rev/day Decay rate: 2.4e-07 rev/day^2 Epoch rev: 85780 Checksum: 323
Satellite: NOAA-15 Catalog number: 25338 Epoch time: 11229.81698332 Element set: 0921 Inclination: 098.6593 deg RA of node: 215.1306 deg Eccentricity: 0.0009673 Arg of perigee: 274.9470 deg Mean anomaly: 085.0606 deg Mean motion: 14.24941399 rev/day Decay rate: 2.7e-07 rev/day^2 Epoch rev: 68950 Checksum: 329
Satellite: RESURS Catalog number: 25394 Epoch time: 11229.93031414 Element set: 0884 Inclination: 098.3027 deg RA of node: 229.5601 deg Eccentricity: 0.0002456 Arg of perigee: 059.8375 deg Mean anomaly: 300.3048 deg Mean motion: 14.24237157 rev/day Decay rate: 2.3e-07 rev/day^2 Epoch rev: 68109 Checksum: 284
Satellite: FENGYUN1 Catalog number: 25730 Epoch time: 11229.89426714 Element set: 0400 Inclination: 098.8207 deg RA of node: 189.7428 deg Eccentricity: 0.0023306 Arg of perigee: 138.1327 deg Mean anomaly: 222.1634 deg Mean motion: 14.08732930 rev/day Decay rate: 4.21e-06 rev/day^2 Epoch rev: 63175 Checksum: 285
Satellite: OKEAN-0 Catalog number: 25860 Epoch time: 11229.94412143 Element set: 0415 Inclination: 097.8889 deg RA of node: 194.7111 deg Eccentricity: 0.0001492 Arg of perigee: 100.0994 deg Mean anomaly: 260.0381 deg Mean motion: 14.73816155 rev/day Decay rate: 9.7e-07 rev/day^2 Epoch rev: 64975 Checksum: 305
Satellite: NOAA-16 Catalog number: 26536 Epoch time: 11229.83980417 Element set: 0403 Inclination: 099.1360 deg RA of node: 261.6245 deg Eccentricity: 0.0010086 Arg of perigee: 216.0196 deg Mean anomaly: 144.0259 deg Mean motion: 14.12638447 rev/day Decay rate: 7.5e-07 rev/day^2 Epoch rev: 56206 Checksum: 292
Satellite: NOAA-17 Catalog number: 27453 Epoch time: 11229.71558948 Element set: 0390 Inclination: 098.3739 deg RA of node: 266.5888 deg Eccentricity: 0.0011246 Arg of perigee: 333.7664 deg Mean anomaly: 026.2957 deg Mean motion: 14.24302611 rev/day Decay rate: 2.33e-06 rev/day^2 Epoch rev: 47541 Checksum: 325
Satellite: NOAA-18 Catalog number: 28654 Epoch time: 11229.77101741 Element set: 0869 Inclination: 099.0002 deg RA of node: 181.0840 deg Eccentricity: 0.0013631 Arg of perigee: 293.6844 deg Mean anomaly: 066.2900 deg Mean motion: 14.11504243 rev/day Decay rate: 4.12e-06 rev/day^2 Epoch rev: 32161 Checksum: 270
Satellite: NOAA-19 Catalog number: 33591 Epoch time: 11229.78192099 Element set: 0060 Inclination: 098.8284 deg RA of node: 168.9069 deg Eccentricity: 0.0014000 Arg of perigee: 158.2323 deg Mean anomaly: 201.9523 deg Mean motion: 14.11194044 rev/day Decay rate: 1.69e-06 rev/day^2 Epoch rev: 13007 Checksum: 292
/EX SB KEPS @ AMSAT $ORB11230.M Orbital Elements 11230.MISC
HR AMSAT ORBITAL ELEMENTS FOR MANNED AND MISCELLANEOUS SATELLITES FROM WA5QGD FORT WORTH,TX August 18, 2011 Send Subscribe/unsubscribe to KEPS at http://www.amsat.org/mailman/listinfo/keps BID: ORB11230.M TO ALL RADIO AMATEURS BT
Satellite: HUBBLE Catalog number: 20580 Epoch time: 11228.54174769 Element set: 818 Inclination: 028.4721 deg RA of node: 342.1720 deg Eccentricity: 0.0003387 Arg of perigee: 048.1642 deg Mean anomaly: 311.9135 deg Mean motion: 15.01456292 rev/day Decay rate: 6.69e-06 rev/day^2 Epoch rev: 96873 Checksum: 299
Satellite: ISS Catalog number: 25544 Epoch time: 11230.85663396 Element set: 913 Inclination: 051.6381 deg RA of node: 205.3228 deg Eccentricity: 0.0013017 Arg of perigee: 091.4932 deg Mean anomaly: 351.4033 deg Mean motion: 15.60429688 rev/day Decay rate: 9.123e-05 rev/day^2 Epoch rev: 73069 Checksum: 288
Satellite: CO-58 Catalog number: 28895 Epoch time: 11229.67184915 Element set: 0952 Inclination: 097.9563 deg RA of node: 103.6567 deg Eccentricity: 0.0018604 Arg of perigee: 031.3359 deg Mean anomaly: 328.8959 deg Mean motion: 14.60148478 rev/day Decay rate: 9.9e-07 rev/day^2 Epoch rev: 30921 Checksum: 358
Satellite: FALCON Catalog number: 30776 Epoch time: 11229.68264524 Element set: 151 Inclination: 035.4349 deg RA of node: 333.0029 deg Eccentricity: 0.0001840 Arg of perigee: 288.8791 deg Mean anomaly: 071.1726 deg Mean motion: 15.04833451 rev/day Decay rate: 1.192e-05 rev/day^2 Epoch rev: 24431 Checksum: 279
Satellite: MAST Catalog number: 31126 Epoch time: 11230.66861917 Element set: 237 Inclination: 097.8932 deg RA of node: 254.3576 deg Eccentricity: 0.0094201 Arg of perigee: 336.9890 deg Mean anomaly: 022.7105 deg Mean motion: 14.53786447 rev/day Decay rate: 1.26e-06 rev/day^2 Epoch rev: 23016 Checksum: 296
Satellite: CAPE1 Catalog number: 31130 Epoch time: 11229.61068241 Element set: 0252 Inclination: 097.8957 deg RA of node: 250.0363 deg Eccentricity: 0.0102181 Arg of perigee: 351.3200 deg Mean anomaly: 008.6227 deg Mean motion: 14.52441092 rev/day Decay rate: 1.50e-06 rev/day^2 Epoch rev: 22955 Checksum: 247
Satellite: COMPASS Catalog number: 32787 Epoch time: 11229.63127848 Element set: 0069 Inclination: 097.8423 deg RA of node: 292.2919 deg Eccentricity: 0.0015362 Arg of perigee: 340.1555 deg Mean anomaly: 019.9009 deg Mean motion: 14.82543068 rev/day Decay rate: 8.95e-06 rev/day^2 Epoch rev: 17866 Checksum: 331
Satellite: AAUSAT2 Catalog number: 32788 Epoch time: 11230.66684134 Element set: 58 Inclination: 097.8420 deg RA of node: 293.5514 deg Eccentricity: 0.0014699 Arg of perigee: 337.4626 deg Mean anomaly: 022.5956 deg Mean motion: 14.82735668 rev/day Decay rate: 5.69e-06 rev/day^2 Epoch rev: 17883 Checksum: 342
Satellite: DO-64 Catalog number: 32789 Epoch time: 11229.91302591 Element set: 0075 Inclination: 097.8529 deg RA of node: 293.9384 deg Eccentricity: 0.0014782 Arg of perigee: 337.6535 deg Mean anomaly: 022.4012 deg Mean motion: 14.83270551 rev/day Decay rate: 8.88e-06 rev/day^2 Epoch rev: 17873 Checksum: 335
Satellite: CO-66 Catalog number: 32791 Epoch time: 11230.80880714 Element set: 62 Inclination: 097.8428 deg RA of node: 293.3668 deg Eccentricity: 0.0015532 Arg of perigee: 336.0488 deg Mean anomaly: 023.9985 deg Mean motion: 14.82215693 rev/day Decay rate: 6.83e-06 rev/day^2 Epoch rev: 17878 Checksum: 343
Satellite: RS-30 Catalog number: 32953 Epoch time: 11230.68727641 Element set: 6 Inclination: 082.5050 deg RA of node: 123.8788 deg Eccentricity: 0.0017693 Arg of perigee: 251.5350 deg Mean anomaly: 108.3808 deg Mean motion: 12.43014418 rev/day Decay rate: 1.0e-07 rev/day^2 Epoch rev: 14685 Checksum: 275
Satellite: TACSAT-3 Catalog number: 35001 Epoch time: 11230.81534807 Element set: 671 Inclination: 040.4534 deg RA of node: 151.9102 deg Eccentricity: 0.0022527 Arg of perigee: 316.0200 deg Mean anomaly: 043.8827 deg Mean motion: 15.50733619 rev/day Decay rate: 1.4104e-04 rev/day^2 Epoch rev: 12680 Checksum: 245
Satellite: PHARMSAT Catalog number: 35002 Epoch time: 11229.96789205 Element set: 0626 Inclination: 040.4691 deg RA of node: 155.2346 deg Eccentricity: 0.0024304 Arg of perigee: 317.6438 deg Mean anomaly: 042.2519 deg Mean motion: 15.49986436 rev/day Decay rate: 1.0371e-04 rev/day^2 Epoch rev: 12669 Checksum: 301
Satellite: HAWKSAT1 Catalog number: 35003 Epoch time: 11229.92207572 Element set: 0727 Inclination: 040.4485 deg RA of node: 114.7752 deg Eccentricity: 0.0017999 Arg of perigee: 327.5695 deg Mean anomaly: 032.4106 deg Mean motion: 15.74765462 rev/day Decay rate: 1.00234e-03 rev/day^2 Epoch rev: 12713 Checksum: 294
Satellite: CP6 Catalog number: 35004 Epoch time: 11230.84058257 Element set: 735 Inclination: 040.4479 deg RA of node: 093.7447 deg Eccentricity: 0.0016327 Arg of perigee: 319.6094 deg Mean anomaly: 040.3527 deg Mean motion: 15.93182378 rev/day Decay rate: 3.32918e-03 rev/day^2 Epoch rev: 12743 Checksum: 309
Satellite: METEOR-M Catalog number: 35865 Epoch time: 11230.71134903 Element set: 648 Inclination: 098.7019 deg RA of node: 285.0135 deg Eccentricity: 0.0002160 Arg of perigee: 189.6792 deg Mean anomaly: 170.4344 deg Mean motion: 14.21841232 rev/day Decay rate: 1.76e-06 rev/day^2 Epoch rev: 9947 Checksum: 293
